Location: Chervonnoye
(48.6000°N, 34.4000°E)
Time: 07:09:45
(UTC+00:00)

Nadezhda 1 Rocket - Pass Details

Date: 17 April 2021
Orbit: 940 x 1006 km, 83.0° (Epoch: 13 May)

Event Time Altitude Azimuth Distance (km) Brightness Sun altitude
Exits shadow 23:46:54 30° 273° (W) 1,727 5.0 -24.5°
Maximum altitude 23:48:00 32° 292° (WNW) 1,672 5.1 -24.4°
Drops below altitude 10° 23:53:38 10° 353° (N) 2,785 7.0 -23.8°
Sets 23:56:30 0° 4° (N) 3,732 8.0 -23.6°
